Wind_Speed
10 11 11 12 12 11 10 9 7 7 5 4 4 4 2 2 3 4 5 6 6 8 15 17 22 23 13 4 10 18 12 14 15 15 17 9 15 9 16 16 11 2 10 24 24
8 9 10 11 11 11 10 9 7 6 6 4 4 4 3 4 3 4 5 6 6 9 15 23 18 6 6 3 14 20 19 18 14 16 13 12 15 18 18 12 8 18 19 22 20
4 5 7 8 9 9 9 8 7 6 6 4 5 5 6 6 2 5 6 3 9 19 20 24 20 14 8 8 10 16 19 16 14 16 13 13 17 9 12 11 2 11 22 28 17
3 4 5 6 6 7 7 6 5 4 4 3 5 8 11 7 3 2 3 2 10 16 21 19 17 13 5 14 7 12 16 13 11 11 16 12 14 15 10 8 4 7 19 23 29
4 3 4 5 5 5 5 5 3 2 1 2 6 11 15 4 2 3 2 6 15 10 19 18 12 8 7 10 9 9 15 9 6 9 12 11 8 6 12 10 8 13 21 22 20
4 4 4 4 4 5 4 4 3 1 1 4 8 13 14 1 5 3 2 11 15 15 15 16 10 1 4 5 13 8 10 8 3 8 9 12 11 3 8 8 10 15 19 23 19
3 3 3 4 3 3 4 3 3 2 3 6 11 17 10 3 7 5 9 10 9 5 6 1 7 5 6 1 8 11 12 2 6 7 5 6 9 11 5 7 12 14 17 21 19
3 3 3 3 3 3 1 2 2 3 5 8 14 17 5 4 9 8 12 9 4 3 5 5 5 8 7 8 8 11 5 6 5 7 4 7 9 20 14 6 12 13 15 18 18
3 2 2 2 3 4 4 3 3 4 7 11 16 7 3 4 5 7 6 5 7 9 3 4 1 3 4 10 13 6 2 5 10 8 4 6 13 21 18 11 9 13 17 17 18
3 2 2 1 3 6 12 17 13 6 10 13 3 3 6 3 5 3 9 11 11 8 5 1 1 7 6 11 12 3 7 10 1 13 7 3 8 13 20 17 10 10 14 17 20
4 3 3 2 2 6 12 13 13 7 10 1 5 4 7 8 8 7 5 4 6 3 4 4 10 14 12 6 6 2 10 10 5 7 5 7 11 20 12 23 18 12 12 15 18
6 5 5 3 4 5 8 2 6 6 7 6 6 8 10 10 0 3 6 4 2 0 2 2 9 7 2 6 4 5 9 3 7 4 6 5 6 21 18 18 18 16 14 12 17
9 8 7 6 6 6 7 5 2 10 8 6 10 11 9 12 6 7 5 5 2 8 5 13 10 2 2 1 4 3 6 7 3 3 4 8 11 15 23 13 22 19 14 12 12
11 10 9 7 7 4 2 2 1 3 8 9 11 8 12 8 4 13 11 7 7 4 4 8 8 6 1 2 3 5 5 2 4 6 9 13 15 24 23 19 14 24 19 14 13
12 12 12 11 7 11 8 7 5 5 4 8 13 11 3 5 4 12 11 10 9 8 6 7 4 4 1 3 5 2 6 7 11 10 10 15 15 13 28 29 12 25 25 26 26
13 12 15 15 12 12 6 7 1 1 7 10 15 9 13 16 4 3 5 8 3 8 13 7 3 5 3 4 7 13 15 14 10 9 12 19 15 17 37 36 22 20 24 25 22
14 13 14 17 15 15 10 11 5 7 9 13 12 8 13 13 9 4 4 4 7 5 8 4 6 5 5 9 6 5 9 6 3 4 9 8 12 5 16 22 17 15 14 19 15
14 14 13 15 22 20 18 14 10 11 10 7 11 9 14 15 10 5 7 8 5 8 6 8 14 7 6 4 3 3 4 5 3 3 10 15 12 22 22 23 27 28 26 24 21
11 13 12 14 20 22 21 15 15 18 12 7 9 12 13 13 8 6 10 7 8 6 5 10 7 8 8 4 4 3 2 6 8 10 6 6 21 20 26 27 26 24 23 18 14
8 7 7 14 18 23 22 23 22 17 10 13 10 13 18 13 9 8 9 5 3 7 4 7 1 6 2 7 5 2 6 4 4 4 4 6 11 14 23 22 19 16 14 14 13
1 12 5 6 9 21 23 27 20 12 10 11 9 11 10 17 14 12 7 7 7 3 2 3 0 4 1 9 0 3 4 1 6 4 0 3 9 32 24 17 13 10 7 8 11
7 12 10 9 13 14 18 22 16 16 19 15 9 13 11 12 16 10 11 10 10 3 5 2 3 10 10 3 4 7 7 6 4 7 13 10 12 14 15 17 11 6 6 10 14
9 9 8 8 14 13 11 17 20 23 20 11 13 9 2 11 8 8 6 12 11 6 6 4 1 5 7 6 8 6 4 2 4 7 11 3 13 15 13 7 6 4 7 7 10
10 4 7 12 13 17 18 15 16 11 5 15 11 11 7 5 8 5 6 3 4 11 11 10 5 6 7 9 10 8 7 6 7 9 10 11 8 19 17 11 13 18 13 12 11
7 1 4 5 6 17 16 4 11 9 11 12 10 8 6 6 5 10 3 4 6 4 3 5 3 4 9 11 11 10 10 12 13 14 15 18 17 13 10 5 9 15 13 14 16
12 9 9 3 3 10 6 12 14 7 15 5 8 7 7 8 7 10 11 5 5 2 7 5 5 8 10 10 14 14 11 13 15 14 16 17 9 9 9 8 12 17 23 26 25
18 16 12 5 2 6 5 13 3 6 13 7 13 6 10 10 12 11 11 8 8 7 4 5 7 9 9 10 12 11 7 4 3 0 4 5 10 18 19 19 23 25 23 30 34
Wind_Direction
265 269 271 272 273 274 275 278 278 279 276 274 253 251 234 146 122 89 129 99 78 81 99 96 90 73 70 68 44 104 112 105 110 118 123 116 146 104 97 93 92 31 130 138 150
270 272 275 275 276 276 275 275 275 274 269 257 238 225 195 149 138 122 93 81 82 97 106 87 63 54 121 181 118 121 108 108 104 108 104 81 92 120 141 178 174 132 128 124 132
287 286 283 281 279 278 278 274 273 273 266 244 222 204 156 135 64 128 66 57 101 107 76 62 61 55 49 22 104 104 90 105 106 106 116 108 86 139 123 149 166 146 138 140 157
300 302 296 291 287 282 279 277 274 269 267 230 189 181 145 128 109 13 305 279 133 123 83 50 37 34 11 11 86 92 100 121 123 112 114 95 112 102 141 151 211 167 156 148 154
310 300 293 291 291 289 283 278 267 264 226 179 169 165 155 114 101 35 183 143 132 120 71 53 28 348 35 17 56 85 111 107 117 130 132 106 88 119 135 170 213 163 157 150 151
312 308 305 299 292 291 281 265 254 199 146 151 157 160 161 45 241 306 169 152 139 143 71 18 338 122 80 47 88 130 133 147 83 126 134 135 112 181 153 175 165 158 159 146 159
309 313 321 321 313 299 288 270 230 176 136 144 152 153 153 93 286 228 173 159 167 190 93 208 178 120 52 98 120 91 65 188 191 123 117 135 134 142 182 175 162 153 150 149 169
307 318 332 346 351 354 317 254 201 165 140 145 153 161 188 302 254 170 169 177 186 49 89 126 144 108 90 177 157 22 275 83 148 142 103 143 132 158 174 205 163 156 157 164 182
300 307 316 11 47 50 59 94 127 142 136 141 153 159 245 354 264 177 136 109 317 318 107 104 144 61 117 194 197 240 173 137 144 139 134 114 156 168 179 220 169 175 177 185 193
277 287 297 351 87 88 87 85 77 85 128 124 58 323 310 330 160 148 174 207 198 210 265 250 75 331 311 276 202 119 221 160 143 179 204 152 158 161 190 204 213 194 189 194 202
255 251 253 222 161 133 119 86 64 71 123 162 348 12 22 179 220 200 186 185 199 187 195 183 272 284 332 206 188 137 324 182 207 177 175 219 225 199 196 199 212 223 212 206 210
257 242 239 224 202 185 187 115 137 182 260 203 158 224 187 254 318 145 207 164 97 359 240 218 235 303 193 123 74 359 342 220 165 75 182 187 173 218 219 203 219 232 232 222 204
260 247 239 229 212 208 212 252 328 183 248 201 266 211 231 226 171 241 250 124 189 239 235 246 289 265 211 352 337 277 308 356 125 170 274 246 269 197 219 210 208 228 242 236 217
258 244 237 228 214 194 134 304 119 273 275 225 201 205 209 140 214 183 212 207 212 210 206 274 212 214 174 274 307 351 356 6 339 342 303 303 297 241 210 193 198 218 230 233 219
271 244 230 218 196 177 170 187 201 198 286 184 188 206 203 153 186 239 254 215 186 201 270 224 111 89 108 261 231 221 336 287 264 275 300 281 294 294 208 190 225 205 210 198 190
276 257 231 219 206 201 233 151 215 188 248 173 183 208 178 190 238 245 151 163 197 255 230 252 296 175 256 241 235 254 278 284 276 265 265 249 256 306 191 195 191 206 209 207 208
273 263 240 220 201 210 191 128 207 236 160 183 196 194 187 186 198 227 163 221 181 221 238 212 255 247 280 252 258 353 322 280 279 230 226 294 253 124 131 164 168 165 139 94 106
280 263 246 218 209 207 188 169 228 231 218 160 180 207 197 195 186 203 214 233 228 241 310 229 156 170 94 92 75 118 13 344 304 352 284 24 119 117 135 140 128 116 104 95 83
289 268 251 209 207 206 191 200 218 207 228 288 158 177 219 175 172 192 215 114 127 208 67 43 98 135 153 322 298 129 340 324 308 319 310 104 109 123 130 132 136 140 145 130 134
295 287 260 204 204 204 198 206 228 224 273 325 181 202 223 174 189 193 220 131 143 249 278 36 2 203 204 353 34 237 314 310 352 10 338 87 128 167 136 133 140 146 165 157 167
3 75 96 172 201 208 213 217 227 226 253 274 213 219 236 191 201 206 214 145 131 168 268 249 288 123 145 327 21 193 25 360 306 293 109 33 34 148 139 148 147 146 173 199 213
162 95 194 204 208 227 229 216 218 256 299 223 212 245 277 230 188 169 127 150 160 144 122 74 246 292 259 285 183 259 287 311 340 313 330 357 107 122 113 78 71 39 336 322 309
193 150 247 277 228 227 245 252 259 272 274 225 222 259 253 205 160 132 138 137 179 188 213 195 198 339 269 202 87 54 29 11 285 278 292 325 137 112 83 67 56 26 352 325 298
173 140 253 291 242 218 242 264 256 256 185 195 210 220 229 115 174 99 129 132 299 313 283 246 241 301 313 338 335 336 305 308 306 310 308 275 267 338 358 339 306 291 273 253 251
179 239 233 41 299 224 234 300 305 260 194 193 190 189 175 199 159 202 192 145 336 317 9 244 231 296 297 301 323 320 305 291 287 281 283 281 311 27 29 348 285 286 269 249 257
201 220 205 217 273 218 207 356 336 211 175 145 141 173 189 201 227 206 223 226 192 210 9 63 302 299 293 308 308 307 291 280 264 273 276 275 265 338 331 311 301 291 282 281 278
228 226 205 197 150 182 37 4 45 40 184 177 175 212 124 176 168 144 154 95 101 119 195 248 290 313 295 301 312 304 285 290 225 54 325 6 332 299 289 281 294 307 305 300 300
Height
3162 3162 3161 3162 3162 3163 3163 3164 3164 3164 3163 3164 3165 3165 3166 3167 3167 3167 3169 3170 3170 3171 3173 3174 3171 3172 3177 3173 3178 3171 3176 3178 3180 3179 3180 3179 3178 3180 3180 3175 3177 3179 3179 3183 3185
3161 3160 3160 3160 3160 3161 3162 3162 3162 3162 3162 3163 3163 3164 3165 3167 3167 3168 3169 3169 3172 3173 3174 3172 3172 3171 3175 3168 3178 3174 3177 3180 3182 3181 3180 3178 3178 3180 3183 3182 3181 3180 3183 3185 3188
3160 3159 3159 3159 3159 3159 3159 3160 3161 3161 3161 3161 3162 3163 3165 3166 3168 3168 3168 3170 3173 3174 3174 3174 3173 3178 3175 3174 3179 3175 3177 3182 3183 3184 3183 3181 3181 3181 3180 3181 3180 3180 3183 3186 3188
3159 3159 3159 3158 3158 3158 3158 3159 3159 3159 3160 3160 3161 3163 3165 3166 3170 3168 3169 3170 3172 3175 3174 3173 3175 3178 3178 3175 3177 3175 3179 3183 3184 3184 3186 3185 3183 3184 3184 3182 3182 3184 3186 3188 3191
3158 3158 3158 3158 3157 3157 3158 3158 3158 3158 3159 3159 3160 3162 3164 3167 3167 3169 3170 3171 3172 3175 3175 3174 3177 3180 3180 3179 3178 3177 3183 3185 3185 3185 3186 3185 3183 3183 3185 3186 3185 3186 3188 3190 3192
3158 3158 3157 3157 3157 3156 3157 3158 3158 3158 3159 3159 3160 3162 3165 3166 3167 3169 3171 3172 3173 3174 3172 3176 3179 3179 3180 3181 3181 3181 3184 3185 3184 3186 3186 3186 3186 3185 3187 3185 3186 3187 3189 3191 3194
3158 3158 3157 3157 3156 3156 3156 3157 3157 3158 3159 3159 3161 3162 3165 3166 3166 3168 3171 3173 3174 3173 3172 3175 3177 3178 3179 3181 3182 3183 3183 3182 3183 3185 3185 3185 3186 3187 3186 3186 3186 3187 3190 3192 3195
3157 3157 3157 3157 3156 3156 3156 3156 3157 3158 3159 3160 3162 3164 3164 3166 3165 3167 3170 3172 3174 3174 3175 3176 3177 3177 3178 3181 3181 3183 3184 3180 3182 3184 3183 3183 3185 3185 3187 3186 3188 3189 3190 3193 3195
3157 3157 3157 3157 3157 3157 3156 3156 3157 3158 3159 3161 3164 3164 3164 3165 3166 3167 3169 3172 3175 3176 3177 3177 3178 3178 3178 3181 3180 3179 3178 3181 3183 3181 3182 3184 3183 3184 3185 3186 3188 3189 3191 3194 3195
3157 3157 3157 3157 3157 3158 3158 3158 3158 3160 3161 3163 3165 3167 3165 3165 3164 3167 3169 3171 3173 3175 3177 3178 3177 3177 3176 3178 3179 3179 3179 3180 3181 3181 3182 3181 3183 3182 3184 3185 3186 3188 3189 3192 3195
3156 3156 3156 3157 3158 3159 3159 3159 3161 3165 3163 3164 3165 3167 3165 3166 3166 3167 3168 3170 3172 3174 3175 3176 3178 3176 3178 3175 3177 3178 3177 3178 3181 3181 3181 3180 3181 3180 3183 3185 3186 3187 3188 3190 3191
3155 3155 3155 3156 3157 3158 3159 3159 3159 3163 3162 3162 3162 3166 3167 3166 3166 3166 3170 3171 3171 3173 3174 3177 3175 3176 3177 3176 3177 3177 3176 3178 3179 3180 3181 3180 3181 3179 3180 3182 3183 3184 3186 3189 3191
3153 3153 3154 3155 3156 3157 3158 3158 3158 3161 3160 3159 3161 3163 3165 3166 3165 3167 3169 3169 3171 3172 3172 3173 3176 3174 3175 3176 3177 3178 3177 3177 3179 3179 3179 3179 3178 3179 3179 3183 3185 3184 3186 3188 3190
3150 3151 3152 3154 3157 3156 3157 3157 3159 3161 3160 3159 3159 3162 3163 3165 3166 3166 3168 3169 3170 3171 3171 3172 3172 3173 3174 3176 3178 3177 3176 3175 3176 3178 3176 3177 3174 3172 3174 3178 3179 3182 3184 3188 3190
3147 3149 3150 3152 3154 3154 3155 3155 3158 3160 3161 3155 3158 3160 3162 3164 3166 3165 3166 3166 3167 3168 3173 3172 3169 3171 3173 3174 3175 3175 3174 3175 3175 3175 3176 3170 3172 3167 3168 3173 3178 3180 3181 3187 3188
3143 3145 3147 3150 3152 3153 3154 3155 3159 3162 3157 3155 3155 3157 3161 3162 3165 3164 3164 3165 3166 3167 3167 3169 3169 3171 3171 3172 3174 3174 3174 3174 3173 3174 3172 3165 3170 3163 3163 3169 3174 3178 3181 3184 3185
3140 3141 3142 3146 3150 3151 3151 3152 3159 3157 3152 3154 3154 3156 3158 3160 3163 3164 3164 3165 3166 3167 3167 3167 3169 3169 3171 3171 3174 3174 3175 3174 3173 3173 3169 3163 3169 3170 3166 3170 3174 3179 3178 3185 3190
3136 3136 3138 3141 3144 3148 3149 3153 3155 3149 3149 3151 3152 3155 3157 3158 3161 3163 3164 3164 3166 3165 3164 3166 3169 3169 3171 3172 3173 3174 3175 3176 3178 3175 3165 3159 3167 3174 3170 3171 3172 3176 3180 3185 3187
3132 3133 3134 3136 3140 3144 3147 3149 3145 3145 3147 3150 3151 3154 3156 3158 3160 3162 3163 3163 3163 3164 3166 3166 3168 3169 3170 3172 3174 3174 3175 3175 3174 3170 3167 3168 3173 3178 3176 3177 3177 3178 3181 3184 3187
3130 3130 3131 3133 3136 3140 3142 3142 3142 3143 3144 3149 3148 3152 3154 3155 3160 3162 3162 3163 3163 3164 3166 3168 3169 3169 3170 3172 3173 3174 3175 3175 3174 3176 3174 3174 3175 3176 3177 3177 3178 3178 3180 3182 3184
3130 3129 3130 3130 3134 3137 3137 3138 3141 3142 3146 3148 3148 3150 3151 3153 3155 3160 3160 3162 3162 3164 3167 3168 3170 3172 3171 3171 3172 3174 3175 3175 3175 3176 3176 3180 3181 3175 3177 3177 3178 3179 3181 3182 3183
3130 3130 3133 3134 3136 3135 3136 3138 3140 3139 3143 3145 3146 3148 3150 3151 3153 3156 3156 3157 3161 3164 3165 3168 3169 3168 3170 3172 3172 3172 3174 3175 3176 3176 3177 3179 3184 3184 3180 3180 3180 3180 3181 3181 3181
3128 3129 3132 3134 3133 3135 3137 3137 3138 3138 3141 3143 3145 3147 3147 3149 3153 3152 3155 3159 3160 3163 3165 3168 3170 3169 3167 3172 3171 3172 3173 3174 3176 3177 3177 3182 3186 3182 3180 3178 3179 3179 3179 3178 3176
3129 3131 3131 3131 3131 3133 3132 3132 3134 3135 3137 3140 3143 3145 3147 3149 3151 3153 3155 3158 3160 3162 3164 3167 3169 3170 3172 3173 3172 3171 3170 3172 3174 3175 3176 3177 3181 3175 3176 3175 3176 3175 3174 3172 3170
3128 3129 3130 3131 3130 3131 3133 3133 3133 3132 3136 3139 3141 3144 3146 3151 3151 3154 3155 3157 3160 3162 3163 3165 3166 3168 3167 3167 3168 3170 3171 3170 3172 3173 3174 3174 3174 3173 3172 3171 3170 3167 3168 3169 3168
3122 3124 3127 3128 3129 3130 3135 3134 3131 3131 3134 3136 3140 3144 3148 3151 3153 3154 3156 3157 3157 3160 3162 3164 3166 3166 3166 3167 3167 3167 3167 3167 3168 3169 3169 3169 3168 3166 3167 3167 3166 3164 3162 3161 3160
3120 3123 3126 3127 3129 3131 3134 3133 3130 3131 3135 3135 3140 3143 3144 3149 3148 3151 3154 3155 3157 3159 3161 3162 3163 3164 3164 3165 3165 3165 3164 3162 3163 3162 3162 3162 3163 3160 3161 3162 3162 3160 3157 3155 3152